Flag for U.S.A. Weather past 2 weeks in Plano, Texas, U.S.A.

Now
45 °F

Mostly cloudy.


Feels Like: 41 °F
Forecast: 44 / 50 °F
Wind: 7 mph from Northeast

Location: McKinney Municipal Airport

Current Time: Dec 20, 2014 at 12:01:52 PM

Latest Report: Dec 20, 2014 at 10:53 AM


Visibility: 9 mi

Pressure: 30.29 "Hg

Humidity: 86%

Dew point: 41 °F

Location of PlanoLocation

Historic Weather in Plano — Graph

°F

Plano temperature yesterday

Maximum temperature yesterday: 48 °F (at 1:53 PM)
Minimum temperature yesterday: 45 °F (at 12:53 AM)
Average temperature yesterday: 46 °F

Past Weeks' High & Low Weather Summary

 TemperatureHumidityPressure
High76 °F (Dec 5, 2:53 PM)100% (Dec 8, 11:04 PM)30.45 "Hg (Dec 8, 11:04 PM)
Low34 °F (Dec 16, 11:53 PM)35% (Dec 15, 3:53 PM)29.79 "Hg (Dec 14, 11:53 PM)
Average51 °F83%30.21 "Hg
* Reported Dec 5 10:53 AM — Dec 20 10:53 AM, Plano, Weather by CustomWeather, © 2014

Note: Actual official high and low records may vary slightly from our data, if they occured in-between our weather recording intervals... More about our weather records

Advertising

Plano weather history for previous 24 hours

 ConditionsComfort  
Time TempWeatherWind HumidityBarometerVisibility
10:53 AM
Dec 20
45 °FMostly cloudy.7 mph86%30.29 "Hg9 mi
9:53 AM45 °FMostly cloudy.5 mph86%30.30 "Hg9 mi
8:53 AM44 °FOvercast.7 mph85%30.28 "Hg10 mi
7:53 AM44 °FMostly cloudy.5 mph89%30.27 "Hg8 mi
6:53 AM44 °FLow clouds.7 mph93%30.27 "Hg8 mi
5:53 AM44 °FFog.7 mph93%30.25 "Hg5 mi
4:53 AM45 °FFog.6 mph90%30.24 "Hg6 mi
3:53 AM45 °FFog.7 mph93%30.24 "Hg6 mi
2:53 AM45 °FFog.6 mph93%30.24 "Hg6 mi
1:53 AM45 °FLow clouds.N/A93%30.24 "Hg7 mi
12:53 AM45 °FLow clouds.6 mph93%30.24 "Hg7 mi
11:53 PM
Dec 19
46 °FLow clouds.7 mph89%30.24 "Hg7 mi
10:53 PM46 °FLow clouds.7 mph93%30.25 "Hg7 mi
9:53 PM46 °FLow clouds.7 mph93%30.25 "Hg7 mi
8:53 PM47 °FLow clouds.5 mph90%30.24 "Hg8 mi
7:53 PM47 °FOvercast.6 mph90%30.22 "Hg10 mi
7:01 PM47 °FLow clouds.9 mph90%30.18 "Hg10 mi
6:53 PM47 °FOvercast.7 mph90%30.22 "Hg10 mi
5:53 PM47 °FOvercast.6 mph93%30.22 "Hg9 mi
4:53 PM48 °FLow clouds.7 mph89%30.20 "Hg7 mi
3:53 PM48 °FLow clouds.9 mph89%30.19 "Hg8 mi
2:53 PM48 °FLow clouds.8 mph89%30.19 "Hg8 mi
1:53 PM48 °FFog.8 mph89%30.18 "Hg5 mi
12:53 PM47 °FLow clouds.8 mph93%30.19 "Hg8 mi
Weather by CustomWeather, © 2014

See weather overviewHow to use our weather pages